Location: Melbourne
(37.8170°S, 144.9670°E)
Time: 08:57:35
(UTC+11:00)

Daily predictions for brighter satellites

Satellite Brightness Start Highest point End
(mag) Time Altitude Azimuth Time Altitude Azimuth Time Altitude Azimuth
NOAA 12 4.2 20:43:08 10° SSE 20:48:33 88° WSW 20:53:55 10° NNW
SL-27 R/B 3.8 20:49:08 10° NW 20:52:34 45° WSW 20:56:07 10° S
Cosmos 405 4.1 20:49:21 10° NNW 20:52:50 49° W 20:56:22 10° S
Cosmos 292 Rocket 4.1 20:48:51 10° N 20:53:26 45° ENE 20:58:05 10° SSE
Helios 1B rocket 3.1 20:51:17 10° NE 20:55:09 39° ESE 20:59:05 10° S
NOSS 3-4 (A) 4.2 20:48:23 10° SSW 20:55:15 48° SE 21:01:35 10° NE
NOSS 3-4 (C) 4.2 20:48:29 10° SSW 20:55:21 48° SE 21:01:40 10° ENE
Cosmos 1437 Rocket 3.1 20:51:46 10° NNE 20:55:24 43° E 20:59:07 10° SSE
Cosmos 1125 Rocket 4.0 20:51:18 10° S 20:56:25 47° ESE 21:01:31 10° NE
Shenzhou-11 Module 3.5 20:56:01 10° W 20:58:55 36° S 21:01:49 10° ESE
H-2A R/B 2.8 20:55:57 10° SSE 20:59:58 78° ENE 21:03:55 10° N
MOS 1-B Rocket 4.2 20:55:40 10° SSE 21:01:11 47° E 21:07:06 10° N
COSMOS 2487 3.4 20:59:39 10° NNE 21:02:44 28° E 21:05:51 10° SE
Tiangong 2 1.7 21:00:42 10° W 21:03:54 60° SSW 21:07:07 10° ESE
Cosmos 1092 Rocket 4.1 20:58:29 10° N 21:04:47 85° E 21:11:14 10° S
CZ-2D R/B 4.0 21:02:42 10° SSE 21:06:22 35° E 21:09:59 10° NNE
Cosmos 1975 4.3 21:07:09 11° NE 21:09:52 20° E 21:12:54 10° SE
Cosmos 1697 Rocket 3.4 21:05:44 10° S 21:11:03 39° ESE 21:15:45 13° NE
Meteor 1-29 3.6 21:09:02 11° NE 21:11:59 39° ESE 21:15:13 10° S
Cosmos 1025 Rocket 3.7 21:09:37 10° S 21:13:49 39° ESE 21:17:32 12° NE
Cosmos 372 Rocket 4.1 21:08:36 10° SSW 21:13:51 64° ESE 21:18:53 11° NNE
Meteor 1-5 Rocket 4.4 21:13:27 10° NNW 21:18:55 78° W 21:24:38 10° S
FREGAT/IRIS 4.2 21:19:06 10° S 21:21:58 38° WSW 21:24:49 10° NW
Milstar 3 Cent rocket 4.0 21:13:50 10° W 21:23:32 34° NNW 21:28:15 14° NE
ERBS 2.9 21:21:15 10° NNW 21:24:31 37° NE 21:27:50 10° ESE
Cosmos 1553 Rocket 4.5 21:22:30 10° S 21:28:19 42° ESE 21:32:52 16° NE
Cosmos 1833 Rocket 2.8 21:23:38 10° NNW 21:29:18 84° WSW 21:35:02 10° SSE
Okean 1-7 Rocket 4.0 21:24:57 10° S 21:29:25 46° E 21:32:36 17° NNE
Cosmos 2369 3.8 21:27:08 10° SSW 21:32:51 78° WNW 21:37:58 13° NNE
SJ-6B 3.1 21:29:49 10° S 21:33:36 65° WSW 21:37:22 10° NNW
USA 267 3.5 21:30:04 15° ENE 21:35:32 64° SE 21:42:04 10° SW
HJ-1C 4.5 21:32:14 10° S 21:35:38 49° WSW 21:38:59 10° NNW
Spot 2 Rocket 3.9 21:34:15 10° SSE 21:39:06 42° E 21:42:56 16° NNE
Cosmos 1655 Rocket 4.1 21:32:49 10° N 21:39:10 69° E 21:45:37 10° SSE
CSL-04 DEB 4.3 21:37:25 10° SSE 21:41:30 68° ENE 21:45:26 10° N
Cosmos 1980 Rocket 2.9 21:36:32 10° S 21:41:51 40° ESE 21:45:08 21° ENE
BREEZE-M DEB (TANK) 4.4 21:26:31 10° NW 21:42:09 64° NE 21:46:28 10° ESE
Cosmos 2278 3.9 21:36:35 10° SSW 21:42:15 69° WNW 21:47:05 14° N
Cosmos 1939 Rocket 3.4 21:40:01 10° SSE 21:44:02 41° E 21:46:15 23° NNE
Cosmos 2026 Rocket 4.2 21:37:52 10° N 21:44:14 78° W 21:50:35 10° S
Okean 1 Rocket 3.8 21:40:13 10° NNW 21:44:40 56° W 21:49:10 10° S
Cosmos 1500 3.4 21:45:09 10° NNW 21:48:56 72° W 21:52:47 10° S
SL-16 R/B 4.0 21:48:02 10° S 21:51:51 18° SE 21:54:47 13° E
Resurs 01 Rocket 1.5 21:49:06 10° SSE 21:53:36 79° ENE 21:57:38 12° N
SJ 16-02 1.9 21:49:24 10° SSW 21:53:46 56° WNW 21:56:59 17° N
Cosmos 1656 4.2 21:51:04 10° SSW 21:56:41 59° WNW 22:01:05 17° N
OAO 2 Rocket 4.2 21:53:31 10° NW 21:58:00 29° NNE 21:58:39 28° NE
Meteor 1-12 Rocket 4.3 21:54:46 15° N 21:59:29 65° E 22:05:21 10° SSE
Meteor 1-4 Rocket 2.8 21:56:16 12° NNW 21:59:33 67° W 22:03:11 10° S
Cosmos 1184 Rocket 3.3 21:57:50 10° S 22:01:10 43° ESE 22:01:38 40° ENE
GPS 2-04 Rocket1 2.7 21:57:54 10° WNW 22:01:47 63° N 22:03:15 36° ENE
YAOGAN 6 2.6 22:02:35 10° SSE 22:06:24 69° ENE 22:07:45 37° N
H-2A R/B 4.0 22:04:29 10° ESE 22:06:43 14° E 22:06:43 14° E
Resurs 1-3 3.9 22:05:38 10° S 22:10:05 70° WSW 22:14:09 12° NNW
Cosmos 1743 2.7 22:09:40 40° NNE 22:10:54 67° E 22:14:51 10° SSE
Cosmos 1892 Rocket 3.5 22:08:20 10° S 22:12:46 72° E 22:14:16 40° NNE
Cosmos 2322 Rocket 3.6 22:08:35 10° S 22:13:17 25° ESE 22:15:30 20° E
Nimbus 7 Rocket 4.4 22:10:12 25° NNE 22:13:52 86° WNW 22:19:51 10° SSW
USA 186 3.5 22:14:19 10° SSW 22:16:47 27° WSW 22:18:55 13° NW
TELKOM 3 4.4 22:14:09 10° WNW 22:17:27 48° SW 22:18:56 21° SSE
Envisat 3.6 22:12:44 10° S 22:17:48 59° WSW 22:22:48 10° NNW
Cosmos 1271 Rocket 3.2 22:22:01 42° E 22:22:01 42° E 22:25:34 10° SSE
Cosmos 2082 Rocket 4.1 22:18:05 10° WNW 22:23:01 31° WSW 22:28:01 10° S
Cosmos 1666 2.5 22:22:52 58° N 22:23:31 81° E 22:27:21 10° S
CZ-2C R/B 4.1 22:22:05 21° E 22:23:35 24° ESE 22:27:57 10° SSE
CZ-4C R/B 3.3 22:20:18 24° N 22:24:37 43° ENE 22:31:26 10° SE
CZ-4B DEB 4.4 22:21:49 10° SSE 22:25:26 89° E 22:25:56 64° N
SL-8 R/B 4.3 22:21:38 10° SW 22:26:25 50° SSE 22:28:26 30° E
S3M 4.2 22:20:33 10° S 22:27:00 73° W 22:31:01 24° N
Intercosmos 25 Rocket 3.8 22:24:29 10° SSW 22:27:45 55° W 22:29:07 35° NNW
OAO 1 4.5 22:22:41 10° WNW 22:28:08 65° N 22:30:06 39° ENE
ERS-1 Rocket 3.9 22:24:14 10° SE 22:28:34 30° E 22:28:34 30° E
Cosmos 1626 Rocket 4.3 22:25:23 10° S 22:29:35 36° ESE 22:29:51 36° E
Cosmos 44 Rocket 3.4 22:26:37 10° NNW 22:31:47 87° WSW 22:37:00 10° SSE
Cosmos 1680 Rocket 3.9 22:34:38 42° ENE 22:34:59 43° ENE 22:40:03 10° SSE
Cosmos 2315 Rocket 4.3 22:28:52 10° S 22:35:09 52° E 22:37:07 39° NE
Shenzhou-11 Module 3.5 22:32:44 10° WSW 22:35:35 33° S 22:35:52 32° SSE
ARGOS 3.7 22:33:13 10° SSE 22:38:17 37° E 22:38:28 37° ENE
Cosmos 192 4.3 22:37:47 34° NNW 22:40:00 88° WSW 22:45:04 10° SSE
Cosmos 1842 3.8 22:36:18 10° S 22:39:51 45° ESE 22:39:51 45° ESE
Tiangong 2 2.8 22:38:07 10° WSW 22:41:05 32° S 22:41:46 28° SSE
Cosmos 1238 Rocket 3.4 22:38:32 10° S 22:40:54 37° SSE 22:40:54 37° SSE
Lacrosse 5 rocket 3.7 22:41:08 10° S 22:43:06 14° SSE 22:44:28 12° SE
Cosmos 1602 Rocket 3.8 22:44:13 10° S 22:48:38 54° E 22:48:38 54° E
Cosmos 44 4.1 22:44:03 10° NW 22:49:18 57° WSW 22:54:38 10° SSE
Cosmos 389 Rocket 3.1 22:53:38 53° WSW 22:53:38 53° WSW 22:56:52 10° S
Helios 1A 3.1 22:49:17 10° SSE 22:53:07 64° ESE 22:53:07 64° ESE
Cosmos 1697 Rocket 4.3 22:50:05 10° SW 22:54:47 27° WNW 22:57:31 19° NW
Cosmos 923 Rocket 3.9 22:56:01 48° NNW 22:57:31 87° WSW 23:02:53 10° SSE
MetOp-B 4.1 22:55:17 10° SSE 23:00:40 63° ENE 23:01:05 61° NE
CZ-4B R/B 3.7 23:02:18 49° ESE 23:02:22 49° ESE 23:07:05 10° S
Cosmos 1455 Rocket 4.5 23:00:56 23° NW 23:02:55 34° WSW 23:06:59 10° SSW
Cosmos 2285 Rocket 4.1 22:59:56 28° NNW 23:03:30 77° WSW 23:10:00 10° SSE
Terra 4.0 23:01:01 10° SE 23:02:06 13° ESE 23:02:06 13° ESE
Cosmos 1340 Rocket 3.1 23:01:12 10° S 23:04:54 69° S 23:04:54 69° S
Meteor 1-15 Rocket 4.3 23:05:00 57° ENE 23:05:36 60° E 23:11:25 10° SSE
SL-08 RB Rocket 4.0 23:06:03 10° SSE 23:10:10 58° ESE 23:10:10 58° ESE
Aureole 3 Rocket 4.2 23:09:22 10° S 23:11:27 28° SSE 23:11:27 28° SSE
RESURS DK-1 2.8 23:09:17 10° SSW 23:12:54 62° SW 23:12:54 62° SW
deb Chang Zheng 4 4.0 23:15:08 54° SE 23:15:08 54° SE 23:18:53 10° S
Cosmos 2112 Rocket 3.9 23:15:06 74° NNW 23:15:37 88° ENE 23:21:04 10° SSE
ATLAS 5 CENTAUR R/B 4.1 23:16:21 10° WSW 23:16:52 12° W 23:16:52 12° W
USA 267 4.2 23:17:24 31° NNW 23:18:44 33° NW 23:24:34 10° WSW
Cosmos 2084 4.4 23:14:55 10° SW 23:19:24 44° WNW 23:19:24 44° WNW
SPOT 1/Viking Rocket 4.1 23:16:02 10° SSE 23:20:12 43° ESE 23:20:12 43° ESE
Cosmos 2360 Rocket 3.0 23:18:55 10° S 23:24:11 38° ESE 23:24:41 37° ESE
BREEZE-M DEB (TANK) 4.5 23:19:38 10° WNW 23:24:45 80° SSW 23:49:02 10° ESE
Cosmos 1980 Rocket 3.7 23:21:01 10° SW 23:25:35 26° WNW 23:26:55 23° NW
Cosmos 2056 Rocket 4.5 23:21:39 10° S 23:26:43 37° ESE 23:26:51 37° ESE
USA 245 4.1 23:25:28 10° S 23:30:33 82° WSW 23:31:00 75° NW
Cosmos 1833 4.2 23:36:25 74° E 23:36:25 74° E 23:42:03 10° SSE
SL-16 R/B 2.2 23:30:48 10° SSW 23:36:29 67° WNW 23:36:39 67° WNW
Cosmos 2322 4.4 23:38:05 10° S 23:43:33 43° ESE 23:43:46 43° ESE
H-2A R/B 2.3 23:41:39 10° S 23:47:03 69° WSW 23:47:20 67° W
Cosmos 2219 Rocket 4.2 23:43:51 10° SSE 23:47:34 17° SE 23:48:59 16° ESE
Cosmos 2333 Rocket 4.3 23:47:24 10° SSE 23:50:48 16° SE 23:52:29 14° ESE
COSMOS 2428 4.0 23:47:23 10° S 23:52:22 29° ESE 23:52:57 29° ESE
